Probability
1 1 0 0 0 0 0 0 0 0 0 0 0 0 0 0 0 0 0 0 0 0 0 0 0 0 0 0 0 0 0 0 0 0 0 0 0 0 0 0 0 0 0 0 0 0 0 0 0
1 0 0 0 0 0 0 0 0 0 0 0 0 0 0 0 0 0 0 0 0 0 0 0 0 0 0 0 0 0 0 0 0 1 1 1 1 0 0 0 0 0 0 0 0 0 0 0 0
1 1 0 0 0 0 0 0 0 0 0 0 0 0 0 0 0 0 0 0 0 0 0 0 0 0 0 0 0 0 1 1 1 2 3 2 2 1 0 0 0 0 0 0 0 0 0 0 0
2 1 0 0 0 0 0 0 0 0 0 0 0 0 0 0 0 0 0 0 0 0 0 0 0 0 0 0 0 0 1 2 2 4 4 3 3 2 1 0 0 0 0 0 0 0 0 0 0
1 1 0 0 0 0 0 0 0 0 0 0 0 0 0 0 0 0 0 0 0 0 0 0 0 0 0 0 0 0 1 3 4 4 4 3 3 2 1 0 0 0 0 0 0 0 0 0 0
0 0 0 0 0 0 0 0 0 0 0 0 0 0 0 0 0 0 0 0 0 0 0 0 0 0 0 0 0 0 2 3 4 4 3 3 3 2 1 0 0 0 0 0 0 0 0 0 0
0 0 0 0 0 0 0 0 0 0 0 0 0 0 0 0 0 0 0 0 0 0 0 0 0 0 0 0 0 0 1 2 3 3 3 3 3 3 1 0 0 0 0 0 0 0 0 0 0
0 0 0 0 0 0 0 0 0 0 0 0 0 0 0 0 1 1 1 0 0 0 0 0 0 0 0 0 0 0 1 2 3 3 3 3 3 3 2 1 0 0 0 0 0 0 0 0 0
0 0 0 0 0 0 0 0 0 0 0 0 0 0 0 0 1 2 1 1 0 0 0 0 0 0 0 0 0 0 1 2 2 2 3 3 3 3 3 2 1 0 0 0 0 0 0 0 0
0 0 0 0 0 0 0 0 0 0 0 0 0 0 0 0 1 1 1 1 0 0 0 0 0 0 0 0 0 0 0 1 1 1 1 2 2 2 2 2 1 0 0 0 0 0 0 0 0
0 0 0 0 0 0 0 0 0 0 0 0 0 0 0 0 0 0 0 0 0 0 0 0 0 0 0 0 0 0 0 0 0 0 0 1 1 1 0 1 1 0 0 0 0 0 0 0 0
0 0 0 0 0 0 0 0 0 0 0 0 0 0 0 0 0 0 0 0 0 0 0 0 0 0 0 0 0 0 0 0 0 0 0 0 0 0 0 0 0 0 0 0 0 0 0 0 0
0 0 0 0 0 0 0 0 0 0 0 0 0 0 0 0 0 0 0 0 0 0 0 0 0 0 0 0 0 0 0 0 0 0 0 0 0 0 0 0 0 0 0 0 0 0 0 0 0
0 0 0 0 0 0 0 0 0 0 0 0 0 0 0 0 0 0 0 0 0 0 0 0 0 0 0 0 0 0 0 0 0 0 0 0 0 0 0 0 0 0 0 0 0 0 0 0 0
0 0 0 0 0 0 0 0 0 0 0 0 0 0 0 0 0 0 0 0 0 0 0 0 0 0 1 0 0 0 0 0 0 0 0 0 0 0 0 0 0 0 0 0 0 0 0 0 0
0 0 0 0 0 0 0 0 0 0 0 0 0 0 0 0 0 0 0 0 0 0 0 0 0 0 0 0 0 0 0 0 0 0 0 0 0 0 0 0 0 0 0 0 0 0 0 0 0
0 0 0 0 0 0 0 0 0 0 0 0 0 0 0 0 0 0 0 0 0 0 0 0 0 0 0 0 1 0 0 0 0 0 0 0 0 0 0 0 0 0 0 0 0 0 0 0 0
0 0 0 0 0 0 0 0 0 0 0 0 0 0 0 0 0 0 0 0 0 0 0 0 0 0 0 0 0 0 0 0 0 0 0 0 0 0 0 0 0 0 0 0 0 0 0 0 0
0 0 0 0 0 0 0 0 0 0 0 0 0 0 0 0 0 0 0 0 0 0 0 0 0 0 0 0 0 0 0 0 0 0 0 0 0 0 1 0 0 0 0 0 0 0 0 0 0
0 0 0 0 0 0 0 0 0 0 0 0 0 0 0 0 0 0 0 0 0 0 0 0 0 0 0 0 0 0 0 0 0 0 0 0 0 0 0 0 0 0 0 0 0 0 0 0 0
0 0 0 0 0 0 0 0 0 0 0 0 0 0 0 0 0 0 0 0 0 0 0 0 0 0 0 0 0 0 0 0 0 0 0 0 0 0 0 0 0 0 0 0 0 0 0 0 0
0 0 0 0 0 0 0 0 0 0 0 0 0 0 0 0 0 0 0 0 0 0 0 0 0 0 0 0 0 0 0 0 0 0 0 0 0 0 0 0 0 0 0 0 0 0 0 0 0
0 0 0 0 0 0 0 0 0 0 0 0 0 0 0 0 0 0 0 0 0 0 0 0 0 0 0 0 0 0 0 0 0 0 0 0 0 0 0 0 0 0 0 0 0 0 0 0 0
0 0 0 0 0 0 0 0 0 0 0 0 0 0 0 0 0 0 0 0 0 0 0 0 0 0 0 0 0 0 0 0 0 0 0 0 0 0 0 0 0 0 0 0 0 0 0 0 0
0 0 0 0 0 0 0 0 0 0 0 0 0 0 0 0 0 0 1 1 0 0 0 0 0 0 0 0 0 0 0 0 0 0 0 0 0 0 0 0 0 0 0 0 0 0 0 0 0
0 0 0 0 0 0 0 0 0 0 0 0 0 0 0 0 0 1 2 2 1 0 0 0 0 0 0 0 0 0 0 0 0 0 0 0 0 0 0 0 0 0 0 0 0 0 0 0 0
0 0 0 0 0 0 0 0 0 0 0 0 0 0 0 0 0 1 2 2 1 0 0 0 0 0 0 0 0 0 0 0 0 0 0 0 0 0 0 0 0 0 0 0 0 0 0 0 0
0 0 0 0 0 0 0 0 0 0 0 0 0 0 0 0 0 0 1 1 1 0 0 0 0 0 0 0 0 0 0 0 0 0 0 0 0 0 0 0 0 0 0 0 0 0 0 0 0
0 0 0 0 0 0 0 0 0 0 0 0 0 0 0 0 0 0 1 1 0 0 0 0 0 0 0 0 0 0 0 0 0 0 0 0 0 0 0 0 0 0 0 0 0 0 0 0 0
0 0 0 0 0 0 0 0 0 0 0 0 0 0 0 0 0 1 2 2 1 0 0 0 0 0 0 0 0 0 0 0 0 0 0 0 0 0 0 0 0 0 0 0 0 0 0 0 0
Wind_Speed
2 3 3 4 6 6 3 2 1 2 3 2 4 6 6 4 2 2 0 2 3 2 1 2 4 5 5 6 6 6 6 6 6 7 7 7 8 8 8 8 8 9 9 9 9 10 10 10 10
1 2 4 5 6 4 2 2 2 1 3 4 5 5 5 4 3 3 1 1 3 3 2 3 5 5 5 5 5 5 5 5 6 6 7 7 7 7 8 8 8 9 9 9 9 9 10 9 9
1 3 4 5 4 3 1 1 1 2 3 3 4 4 4 2 2 1 1 3 3 3 3 3 5 5 5 5 5 4 4 4 5 6 7 7 7 7 8 8 8 9 9 9 9 9 9 9 9
3 5 5 6 4 1 1 1 2 3 3 4 4 4 3 3 1 2 4 4 4 3 3 2 5 5 5 5 5 4 4 4 5 7 7 7 7 8 8 8 9 9 9 9 9 9 9 9 9
4 5 6 4 2 1 1 1 2 3 3 3 4 4 2 4 3 5 5 4 4 3 3 2 5 5 5 5 5 5 5 6 7 8 8 8 8 8 8 8 9 9 9 9 9 9 9 9 8
5 5 5 2 1 2 2 1 2 4 3 3 4 4 2 2 4 4 4 3 3 3 3 3 4 5 5 6 6 6 7 7 8 8 8 8 8 8 8 8 8 8 9 9 9 9 9 9 9
5 5 3 2 1 2 1 2 3 3 4 2 3 4 1 1 2 4 4 4 3 3 4 4 4 4 5 6 7 7 7 8 8 7 7 7 7 8 8 8 8 8 9 9 9 9 9 9 9
4 5 3 1 1 0 1 2 2 3 3 3 3 5 3 2 3 4 4 4 3 3 3 3 4 4 4 4 6 6 7 8 7 7 7 7 6 6 7 7 7 7 8 8 9 9 9 10 10
4 6 2 2 3 1 1 3 2 3 5 4 3 2 2 6 6 5 4 3 2 2 2 2 3 3 3 3 4 5 6 6 6 5 7 6 4 4 4 5 7 7 7 8 8 9 9 9 9
5 3 2 2 3 3 2 2 2 4 4 3 4 5 6 6 6 5 3 2 1 0 1 1 1 2 2 2 3 3 3 4 4 3 4 3 3 3 4 5 7 7 7 8 8 9 9 7 4
3 3 2 0 2 3 3 3 2 5 2 3 5 5 5 5 5 4 2 2 1 1 0 0 1 1 2 2 2 2 2 2 3 3 3 3 3 2 3 2 3 4 5 4 5 6 4 4 3
3 0 1 1 2 3 3 3 3 3 2 3 6 8 6 6 5 4 3 2 1 1 1 1 1 2 2 2 2 2 2 2 2 2 3 2 2 2 2 2 2 2 2 3 3 3 4 4 4
2 1 2 3 4 4 5 4 3 1 1 5 7 7 6 5 4 3 3 2 2 1 1 1 2 2 2 2 1 2 2 2 2 2 2 2 2 2 2 2 2 2 2 2 2 3 3 3 3
2 2 1 2 3 2 5 3 3 0 3 6 7 6 5 4 4 3 2 2 2 1 1 1 2 2 2 2 1 1 1 2 2 2 2 2 2 2 2 2 2 2 2 2 2 2 2 2 2
3 3 2 1 2 2 4 3 0 2 5 5 4 4 3 3 3 3 3 3 3 2 1 1 2 2 2 2 2 2 2 2 2 2 2 3 2 2 2 2 2 1 2 2 2 2 2 2 2
3 3 1 2 1 2 5 2 3 3 6 5 4 3 3 2 3 2 2 2 2 2 2 1 2 3 2 2 2 2 2 2 2 1 2 2 2 2 2 2 1 1 2 2 2 2 2 2 2
3 1 1 2 0 2 4 4 3 3 6 5 4 4 3 2 2 2 2 2 3 3 3 2 2 2 2 2 3 2 2 2 2 2 2 1 2 2 2 2 1 2 2 2 2 2 2 2 2
2 2 1 2 1 3 3 4 3 3 6 6 5 4 4 4 4 3 3 2 2 3 3 3 2 3 3 2 3 2 3 2 2 2 1 1 1 2 2 2 2 2 2 2 2 2 2 2 1
3 2 2 3 2 2 3 5 5 4 4 5 5 5 5 5 3 2 2 2 3 3 3 3 3 2 2 2 1 1 1 1 1 1 1 1 1 2 2 1 1 2 2 1 2 2 2 2 1
2 2 2 2 1 3 2 4 4 4 6 7 7 7 6 4 2 2 3 3 3 3 3 2 2 2 2 1 1 1 1 0 1 1 2 2 2 1 1 1 1 1 1 2 2 2 1 1 1
3 4 4 3 1 2 1 4 3 3 3 4 4 5 5 7 6 5 4 4 3 3 4 3 3 2 2 2 2 2 2 2 2 2 2 2 1 1 1 1 1 1 1 1 1 1 2 1 1
4 5 5 4 2 1 1 3 6 3 3 4 5 5 6 6 5 5 5 5 5 4 3 3 3 2 2 3 3 3 2 1 1 1 0 1 1 1 1 1 1 1 1 1 1 1 1 2 1
4 2 3 2 3 0 1 1 7 1 3 5 6 7 7 6 6 6 6 6 5 4 3 3 3 2 2 3 3 3 1 1 0 0 1 1 1 1 1 1 1 1 1 1 1 1 1 1 2
4 5 4 4 3 1 3 3 6 4 5 5 5 6 6 6 6 5 4 4 3 3 3 3 3 2 2 2 3 3 2 1 1 0 0 0 1 1 1 1 0 0 0 1 1 1 2 1 1
4 5 3 3 2 4 2 3 8 5 5 5 6 6 6 6 5 4 4 4 3 4 3 3 3 2 2 2 2 3 3 3 2 2 1 1 0 1 1 1 1 0 0 0 1 1 1 1 1
3 7 6 4 4 3 1 5 7 4 3 2 3 4 5 5 5 5 5 5 4 4 4 4 4 3 2 2 2 2 2 2 2 2 2 2 2 1 1 0 0 1 0 0 1 1 1 1 1
5 3 5 5 1 1 4 5 6 1 2 1 2 3 4 4 5 5 5 4 4 4 4 5 4 3 3 3 2 2 2 2 2 1 1 1 1 1 0 1 0 0 0 0 1 1 1 1 1
4 7 5 4 3 2 4 4 4 4 2 2 2 3 3 3 4 4 4 4 3 3 3 3 3 3 3 3 2 2 2 2 1 1 1 1 1 0 0 0 0 0 0 1 1 1 0 1 1
3 4 4 4 4 5 3 6 4 5 5 4 4 3 4 4 4 4 3 3 3 3 3 3 3 2 2 2 2 2 1 1 1 1 1 1 0 0 0 0 0 0 0 0 1 1 1 1 0
3 5 7 4 4 4 3 7 4 2 3 4 3 2 3 4 4 4 3 3 3 2 2 2 2 2 2 2 2 2 1 1 1 1 0 1 0 0 0 0 0 0 0 0 1 2 1 1 1
Wind_Direction
24 75 76 57 55 54 50 352 4 38 52 45 64 81 92 83 92 131 265 126 124 126 123 124 109 94 89 87 81 86 89 87 86 87 85 83 84 85 84 83 80 77 76 75 75 76 76 76 78
78 82 53 57 76 70 360 333 42 49 132 128 69 68 71 63 58 91 82 133 122 113 89 105 105 92 91 88 81 80 83 87 87 88 87 84 83 84 84 79 78 78 78 78 78 76 76 75 77
78 56 72 66 82 127 159 311 118 72 87 90 78 57 69 62 77 116 145 127 102 85 72 93 98 94 92 85 77 73 78 93 98 95 90 85 83 83 81 76 74 74 74 75 76 75 76 75 79
74 44 54 68 78 169 190 212 143 112 68 50 94 72 57 30 106 137 123 112 98 78 69 84 90 90 85 79 72 63 73 100 108 101 94 89 85 82 81 77 76 74 72 72 72 74 74 74 79
60 70 61 56 37 341 351 27 94 96 77 50 86 91 49 4 75 106 112 108 105 85 63 71 89 87 79 74 70 58 66 97 105 100 95 88 84 85 83 79 77 74 71 68 69 70 71 72 77
58 66 80 77 9 347 4 34 85 80 85 80 89 99 62 44 91 108 107 97 96 85 62 52 70 74 73 65 63 49 67 88 97 96 91 86 82 81 80 78 76 74 72 70 68 67 70 71 76
94 88 107 123 61 3 35 83 98 100 89 96 112 102 93 71 119 118 102 86 77 70 59 41 34 42 61 62 62 53 72 87 89 88 86 83 80 77 76 73 74 74 69 67 67 65 67 72 77
113 98 90 92 131 292 338 90 87 96 98 91 97 124 171 192 129 101 85 75 68 58 53 43 36 31 28 37 54 55 65 74 79 81 80 77 73 69 66 65 69 72 71 69 66 63 66 71 74
83 78 118 192 171 215 53 87 66 67 87 70 68 107 137 128 115 101 82 67 64 62 42 40 37 34 28 29 46 49 55 56 59 64 66 63 51 45 49 57 64 65 65 67 68 67 70 71 71
82 110 202 205 175 151 90 92 108 89 74 63 59 57 90 110 116 119 112 112 114 87 41 29 34 37 33 33 41 36 41 42 44 48 47 51 50 43 48 47 57 59 60 62 64 67 66 63 58
108 152 185 144 147 129 112 88 78 117 109 172 158 142 126 122 127 134 137 145 173 179 110 51 65 51 49 40 48 38 39 40 39 43 47 52 48 38 36 36 37 40 49 46 50 55 54 59 60
107 99 163 163 110 102 112 111 86 104 189 168 151 143 139 143 156 164 167 164 129 99 74 44 72 71 60 56 52 54 49 46 38 35 48 57 54 44 34 40 32 39 45 49 47 55 60 61 60
106 106 77 97 83 90 94 93 108 54 79 110 121 129 143 154 164 164 156 142 126 130 122 105 95 87 82 77 60 66 58 56 45 40 46 68 70 58 49 45 44 42 47 56 57 60 68 64 56
144 125 71 68 87 84 98 67 84 290 115 116 127 140 147 151 153 141 137 139 153 159 136 94 102 96 94 84 71 65 70 72 62 51 49 68 80 80 75 60 51 45 47 63 73 72 74 65 59
102 84 26 8 119 148 102 36 236 193 133 131 141 146 145 154 152 165 177 168 166 164 137 116 123 97 89 79 74 75 68 74 63 53 53 60 72 82 86 77 62 43 52 71 75 65 66 71 63
68 68 29 300 142 143 120 232 259 165 145 154 163 163 164 177 180 188 182 168 153 139 121 110 105 99 100 98 82 68 69 74 64 53 53 53 59 80 82 76 56 42 60 71 85 76 68 58 58
48 122 223 297 227 132 138 218 253 163 159 174 180 184 187 197 213 211 193 182 159 152 136 112 100 105 99 93 88 73 72 75 64 55 55 47 54 76 86 76 54 55 67 66 80 67 78 74 61
203 192 208 244 262 127 160 228 251 187 178 188 192 195 197 206 223 214 188 172 150 136 124 115 95 88 88 79 76 67 57 52 49 48 34 38 55 82 96 87 71 73 75 64 68 74 66 79 74
160 165 219 252 226 150 202 235 249 212 196 199 204 203 205 217 224 190 161 145 128 120 121 128 120 107 103 87 92 95 68 28 32 33 25 25 47 70 91 91 88 82 90 92 94 92 81 60 57
170 176 237 282 224 160 212 262 262 214 208 205 204 205 205 203 189 176 160 152 159 159 158 143 145 142 142 126 130 133 129 88 47 20 18 29 43 51 91 103 104 95 98 86 87 97 102 60 50
211 196 205 209 27 40 72 309 278 249 219 215 208 201 200 192 189 187 180 182 178 181 183 174 176 156 145 116 97 75 60 46 37 18 4 3 28 38 58 85 100 107 117 140 155 134 128 133 41
232 223 191 176 136 285 139 281 283 255 252 225 218 207 206 201 189 187 187 187 195 201 189 173 167 153 147 132 125 125 121 147 224 226 277 339 7 22 32 80 97 113 127 153 189 133 128 135 140
207 163 142 150 152 76 11 205 284 295 256 243 226 214 209 201 189 188 192 194 195 192 179 170 154 153 156 151 150 145 137 182 229 46 48 6 2 16 14 51 84 99 145 176 167 139 127 142 155
139 81 63 53 76 262 229 188 273 241 230 240 224 211 203 197 189 186 184 178 183 174 161 154 151 162 165 160 159 159 163 162 120 54 111 336 343 358 3 28 38 152 168 187 179 168 154 163 157
98 95 35 355 5 253 231 200 250 252 238 223 216 208 195 185 178 177 175 179 179 174 172 163 162 177 181 171 172 173 177 178 190 204 204 218 294 314 309 351 354 335 267 212 154 152 160 169 174
169 145 160 201 222 275 289 235 256 270 275 240 200 187 174 180 180 182 185 185 181 179 176 170 173 185 187 186 196 183 175 184 208 208 199 206 222 237 262 245 296 292 279 194 135 131 169 141 190
149 170 168 135 149 257 277 286 300 323 5 47 141 150 174 185 182 181 178 176 173 171 175 177 177 179 188 196 194 175 169 185 211 221 196 209 238 240 214 198 191 308 292 146 134 133 174 137 185
149 144 111 127 159 248 287 278 263 274 256 234 188 185 187 174 164 158 160 166 166 165 159 151 164 181 190 184 182 174 180 184 187 161 187 212 250 278 115 112 159 210 273 166 142 151 176 138 202
118 117 119 126 155 164 244 269 243 236 221 206 208 198 178 168 165 156 155 154 145 129 128 140 156 157 161 174 171 159 170 153 137 146 181 179 164 175 155 172 144 165 331 207 159 191 180 176 230
170 168 153 160 207 178 183 265 301 264 225 193 192 179 159 157 152 144 133 120 117 122 132 151 154 151 165 159 137 138 142 123 119 139 171 147 153 173 181 148 127 157 171 231 191 198 203 195 218